Weather in Khouribga

Morocco     32°52′44″N   6°54′37″W
temp.,
°C
wind,
m/s
gust,
m/s
humid.,
%
clouds,
%
prec.,
mm/h
press.,
hPa
HPBL,
m
23 september, thu
thu2301:00+19n2377100 0.0 1013123
04:00+18wsw1170100 0.0 101263
07:00+17wnw2375100 0.0 101289
10:00+19nw3368100 0.0 1014465
13:00+23wnw2244100 0.0 10141211
16:00+25wnw2239100 0.0 10121496
19:00+23nnw535399 0.0 1013393
22:00+18n5586100 0.0 1015261
24 september, fri
fri2401:00+18nne3487100 0.0 1014158
04:00+17n3493100 0.0 1014129
07:00+16n229680 0.0 101460
10:00+20n2173100 0.0 1015366
13:00+24nw3352100 0.0 10151199
16:00+27nnw54359 0.0 10131832
19:00+23wnw65390 0.0 1015683
22:00+18n55700 0.0 1018261
25 september, sat
sat2501:00+17nne34730 0.0 1017162
04:00+16n22760 0.0 101756
07:00+15n22820 0.0 101828
10:00+19ne11600 0.0 1019382
13:00+25nnw32400 0.0 10181238
16:00+27n5432100 0.0 10161649
19:00+23n87430 0.0 1018470
22:00+18n67590 0.0 1020269
26 september, sun
sun2601:00+17nne46640 0.0 1019162
04:00+17ne336338 0.0 101936
07:00+18ne2260100 0.0 101912
10:00+22nne22455 0.0 1020282
13:00+27n42320 0.0 10191050
16:00+29n53252 0.0 10181469
19:00+25n78440 0.0 1018441
22:00+20n58635 0.0 1021214
27 september, mon
mon2701:00+18nne4664100 0.0 1020117
04:00+18ne33605 0.0 101928
07:00+18nne33610 0.0 101920
10:00+23nne33425 0.0 1019247
13:00+28n43265 0.0 1018858
16:00+31n432010 0.0 10161495
19:00+27n67325 0.0 1016309
22:00+21nne46555 0.0 1018128